[[{"header":{"parameterUnit":"m.s-1","parameterCategory":1,"la1":30.2991,"la2":30.254,"lo1":-89.0895,"lo2":-89.0444,"dy":0.0017,"dx":0.0017,"nx":28,"ny":28,"refTime":"2025-05-19T09:00:00:Z","depth":0,"parameterNumber":2,"parameterNumberName":"U-component_of_WINDS"},"data":[0,0,0,0,0,0,0,0,0,0,0,0,0,0,0,0,0,0,0,0,0,0,0,0,0,0,0,0,0,0,0,0,0,0,0,0,0,0,0,0,0,0,0,0,0,0,0,0,0,0,0,0,0,0,0,0,0,0,1.2206,1.2205,0,1.2189,1.2189,1.2189,1.2165,1.2164,1.2164,1.2163,1.2146,1.2146,1.2146,0,0,0,0,0,0,0,0,0,0,0,0,0,1.2215,1.2215,1.2206,1.2205,1.2205,1.2189,1.2189,1.2188,1.2165,1.2164,1.2164,1.2163,1.2146,1.2146,1.2146,0,0,0,0,0,0,0,0,0,0,0,0,0,1.2206,1.2215,1.2206,1.2191,1.219,1.2189,1.2189,1.2188,1.2165,1.2164,1.2164,1.2163,1.2146,1.2146,1.2146,1.2157,0,0,1.2145,1.2145,0,0,0,0,0,0,0,0,1.2207,1.2206,1.2194,1.2192,1.2191,1.2178,1.2186,1.2178,1.2165,1.2174,1.2163,1.2163,1.2157,1.2156,1.2154,1.2156,1.2156,1.2145,1.2145,1.2145,1.2145,0,0,0,0,0,0,0,1.2207,1.2206,1.2199,1.2194,1.2192,1.2185,1.2183,1.2184,1.2169,1.2174,1.2172,1.217,1.2156,1.2154,1.2154,1.2155,1.2145,1.2145,1.2145,1.2145,1.2164,1.2164,0,0,0,0,0,0,1.221,1.2207,1.22,1.2198,1.2197,1.2186,1.2183,1.2183,1.2169,1.2167,1.2171,1.2169,1.2155,1.2154,1.2153,1.2164,1.2145,1.2145,1.2145,1.2163,1.2164,1.2164,0,0,0,0,0,0,1.2211,1.221,1.22,1.2202,1.2201,1.2186,1.2186,1.2183,1.2181,1.2167,1.2164,1.2172,1.2154,1.2153,1.2156,1.2163,1.2145,1.2145,1.2162,1.2163,1.2164,1.2187,0,0,0,0,0,0,1.2211,1.221,1.2215,1.2203,1.2201,1.2204,1.2186,1.2183,1.2181,1.2179,1.2167,1.2165,1.2154,1.2156,1.2156,1.2162,1.2145,1.2162,1.2163,1.2164,1.2185,1.2188,1.2191,0,0,0,0,0,1.2211,1.2222,1.2215,1.2214,1.2206,1.2204,1.2203,1.2191,1.2182,1.2186,1.2176,1.2165,1.2162,1.2157,1.2156,1.2163,1.2161,1.2162,1.2164,1.2184,1.2188,1.2191,0,0,0,0,0,0,1.2236,1.2221,1.2212,1.222,1.2214,1.22,1.2205,1.2195,1.2191,1.2189,1.2173,1.2171,1.2175,1.2169,1.2163,1.2172,1.216,1.2161,1.2176,1.2179,1.2182,1.2183,1.2145,0,0,0,0,0,1.2243,1.2243,1.2229,1.2237,1.2234,1.222,1.2219,1.221,1.2202,1.22,1.2191,1.2184,1.2181,1.218,1.2177,1.2184,1.2181,1.2189,1.2191,1.2194,1.2195,1.2196,1.2199,1.2169,1.2169,1.2169,0,0,1.2256,1.2247,1.2248,1.2241,1.2236,1.2235,1.2218,1.2219,1.2218,1.22,1.2201,1.2194,1.2186,1.219,1.2192,1.2185,1.2202,1.2195,1.2197,1.2197,1.2198,1.2201,1.2203,1.2169,1.2169,1.2169,0,0,1.2279,1.2273,1.2278,1.2272,1.2263,1.2254,1.2255,1.2243,1.2237,1.2239,1.2224,1.2223,1.2219,1.2213,1.2209,1.2228,1.2217,1.2228,1.2242,1.2244,1.2246,1.2248,1.2253,1.2256,1.2229,1.2229,1.2229,0,1.2296,1.2296,1.2282,1.2283,1.228,1.2263,1.2267,1.2262,1.2252,1.225,1.2243,1.2236,1.2229,1.2231,1.2236,1.2234,1.2234,1.2229,1.2247,1.2249,1.225,1.2255,1.2257,1.223,1.223,1.223,1.223,0,1.2317,1.2316,1.2321,1.2312,1.2309,1.2312,1.2298,1.2297,1.2287,1.2278,1.2278,1.2269,1.2263,1.2263,1.2254,1.2263,1.2259,1.225,1.2237,1.2255,1.2259,1.2261,1.2232,1.2231,1.2231,1.2231,0,0,1.2356,1.2338,1.234,1.2334,1.2322,1.2321,1.2323,1.2316,1.2315,1.2309,1.2308,1.2305,1.2295,1.2291,1.2281,1.2283,1.2296,1.2273,1.2272,1.2276,1.2304,1.231,1.2313,1.2289,1.2289,1.229,1.2304,0,1.2376,1.2377,1.2364,1.2369,1.2367,1.235,1.2351,1.2343,1.2334,1.2331,1.2321,1.2318,1.2307,1.2304,1.2305,1.2295,1.2301,1.2293,1.2288,1.2288,1.2289,1.2315,1.2322,1.2336,1.2306,1.2306,1.2306,0,1.24,1.2394,1.2398,1.2384,1.2383,1.2384,1.2376,1.2374,1.2364,1.2358,1.2352,1.234,1.2339,1.2328,1.2326,1.232,1.2317,1.2312,1.2312,1.231,1.2297,1.2313,1.2341,1.2342,1.2309,1.2309,1.2309,0,1.2426,1.2419,1.2421,1.2417,1.2401,1.2402,1.2395,1.2385,1.2381,1.2374,1.2371,1.2365,1.2361,1.2355,1.2341,1.2334,1.234,1.2328,1.2334,1.2334,1.2335,1.2335,1.2362,1.2335,1.2335,1.2335,1.2335,0,1.2449,1.2452,1.2432,1.2433,1.2435,1.2419,1.2421,1.2413,1.2404,1.2401,1.2386,1.2385,1.2367,1.2363,1.2352,1.2351,1.235,1.2344,1.234,1.2344,1.2345,1.2341,1.234,1.2335,1.2335,1.2335,1.2335,0,1.2479,1.2466,1.2465,1.245,1.2446,1.2448,1.2434,1.2434,1.2424,1.2421,1.242,1.2404,1.2398,1.2384,1.2375,1.2367,1.2368,1.2363,1.2372,1.2369,1.2375,1.2375,1.24,1.2402,1.2375,1.2375,1.2376,0,1.2494,1.2496,1.248,1.2478,1.2471,1.2468,1.2464,1.2448,1.2444,1.2432,1.2433,1.2426,1.2419,1.2411,1.2398,1.239,1.2384,1.2394,1.2383,1.2386,1.2383,1.2382,1.2382,1.2396,1.2396,1.2396,1.2397,0,1.2522,1.2515,1.251,1.2502,1.2497,1.2491,1.2483,1.2481,1.2463,1.246,1.2453,1.2448,1.2438,1.2431,1.2421,1.2413,1.2402,1.24,1.2401,1.2404,1.2408,1.2405,1.2377,1.2399,1.2399,1.2399,1.2399,1.2399,1.2544,1.2544,1.2533,1.2527,1.2519,1.2512,1.251,1.2499,1.2493,1.2484,1.2475,1.2469,1.2457,1.2443,1.2436,1.243,1.2425,1.2426,1.2426,1.2426,1.2427,1.241,1.2429,1.2429,1.2429,1.2429,1.2428,0,1.257,1.2562,1.2557,1.2545,1.254,1.253,1.252,1.2516,1.2511,1.2502,1.2495,1.2487,1.248,1.2466,1.2457,1.2455,1.2449,1.2453,1.2453,1.2451,1.2434,1.2434,1.2458,1.2458,1.2458,1.2458,1.2458,1.2458,1.2583,1.2582,1.2573,1.2567,1.2558,1.2552,1.2548,1.254,1.2532,1.2524,1.2517,1.2508,1.2496,1.2486,1.2478,1.2474,1.2471,1.2476,1.247,1.2455,1.2452,1.245,1.2449,1.2476,1.2476,1.2487,1.2488,1.2488]},{"header":{"parameterUnit":"m.s-1","parameterCategory":1,"la1":30.2991,"la2":30.254,"lo1":-89.0895,"lo2":-89.0444,"dy":0.0017,"dx":0.0017,"nx":28,"ny":28,"refTime":"2025-05-19T09:00:00:Z","depth":0,"parameterNumber":3,"parameterNumberName":"V-component_of_WINDS"},"data":[0,0,0,0,0,0,0,0,0,0,0,0,0,0,0,0,0,0,0,0,0,0,0,0,0,0,0,0,0,0,0,0,0,0,0,0,0,0,0,0,0,0,0,0,0,0,0,0,0,0,0,0,0,0,0,0,0,0,4.7657,4.7658,0,4.7747,4.7748,4.7749,4.772,4.7718,4.7716,4.7714,4.7802,4.7806,4.7811,0,0,0,0,0,0,0,0,0,0,0,0,0,4.7457,4.746,4.7656,4.7658,4.7659,4.7746,4.7748,4.7749,4.772,4.7718,4.7716,4.7713,4.7801,4.7806,4.7811,0,0,0,0,0,0,0,0,0,0,0,0,0,4.7545,4.7462,4.7656,4.7655,4.7656,4.7746,4.7748,4.7749,4.7721,4.7718,4.7715,4.7712,4.7799,4.7805,4.7812,4.7907,0,0,4.783,4.7833,0,0,0,0,0,0,0,0,4.754,4.7552,4.7654,4.7655,4.7656,4.7719,4.7709,4.7802,4.7721,4.7696,4.7714,4.7711,4.7777,4.7785,4.7808,4.7911,4.7915,4.7831,4.7835,4.7837,4.7839,0,0,0,0,0,0,0,4.7534,4.7548,4.7692,4.7656,4.7657,4.7649,4.7658,4.7727,4.7751,4.7698,4.7696,4.7707,4.7777,4.7802,4.781,4.7916,4.7831,4.7836,4.784,4.7843,4.8103,4.8106,0,0,0,0,0,0,4.7527,4.7543,4.7689,4.7695,4.759,4.7655,4.7665,4.7702,4.775,4.7755,4.771,4.7706,4.7793,4.7802,4.7812,4.7928,4.7837,4.7843,4.7847,4.81,4.8104,4.8108,0,0,0,0,0,0,4.7523,4.7541,4.7685,4.7618,4.7636,4.7662,4.7703,4.7705,4.773,4.7759,4.7763,4.7731,4.7791,4.7804,4.7884,4.7931,4.7846,4.7852,4.8096,4.8101,4.8106,4.816,0,0,0,0,0,0,4.7518,4.7539,4.7577,4.762,4.764,4.7757,4.7705,4.7709,4.7741,4.7737,4.778,4.7785,4.7789,4.7875,4.789,4.7938,4.7856,4.8092,4.8099,4.8104,4.8154,4.8166,4.8176,0,0,0,0,0,4.751,4.7587,4.7579,4.7596,4.7687,4.776,4.7771,4.7776,4.7745,4.7783,4.7801,4.7783,4.7923,4.7884,4.7901,4.7951,4.8089,4.8097,4.8104,4.8149,4.8164,4.8176,0,0,0,0,0,0,4.7547,4.7593,4.7584,4.7677,4.7715,4.7755,4.7802,4.7791,4.7838,4.7832,4.7835,4.7845,4.7927,4.7947,4.7902,4.8046,4.8002,4.8013,4.803,4.8044,4.8055,4.8049,4.7862,0,0,0,0,0,4.7567,4.7623,4.7659,4.7737,4.7757,4.7776,4.7808,4.7809,4.7848,4.7863,4.7888,4.7925,4.7978,4.8012,4.8062,4.8157,4.8166,4.8199,4.8211,4.8219,4.8229,4.8281,4.8297,4.8131,4.8131,4.8131,0,0,4.7606,4.7638,4.7673,4.7746,4.7775,4.7832,4.779,4.7852,4.7894,4.7872,4.795,4.797,4.8011,4.81,4.814,4.8119,4.8277,4.8229,4.8236,4.824,4.829,4.8306,4.832,4.8136,4.8135,4.8135,0,0,4.7708,4.7738,4.7807,4.7838,4.7884,4.7897,4.7913,4.7955,4.7968,4.8047,4.8031,4.8081,4.8171,4.8202,4.8229,4.8344,4.8329,4.836,4.8418,4.8469,4.8482,4.8493,4.8535,4.855,4.8369,4.8369,4.837,0,4.7752,4.7839,4.7844,4.7908,4.794,4.7925,4.7995,4.8024,4.8083,4.8105,4.8081,4.8194,4.8221,4.8317,4.8345,4.8368,4.8387,4.8355,4.848,4.8491,4.8502,4.8542,4.8557,4.8373,4.8373,4.8372,4.8372,0,4.789,4.795,4.8,4.806,4.8098,4.8165,4.8179,4.8217,4.8214,4.8229,4.831,4.8342,4.8398,4.8421,4.8418,4.8517,4.8502,4.8479,4.8434,4.8522,4.8559,4.8574,4.8378,4.8377,4.8376,4.8375,0,0,4.8017,4.808,4.8098,4.8126,4.8175,4.8222,4.8287,4.8344,4.8376,4.8418,4.8473,4.855,4.8529,4.856,4.8561,4.8606,4.8696,4.8577,4.8578,4.8598,4.8806,4.8824,4.8841,4.8686,4.8689,4.8691,4.8803,0,4.8124,4.8241,4.8248,4.8354,4.841,4.8396,4.8453,4.849,4.8505,4.8554,4.8571,4.8626,4.8594,4.8613,4.8656,4.8676,4.8737,4.8667,4.8737,4.8739,4.8727,4.8861,4.8879,4.8983,4.8818,4.882,4.8822,0,4.8264,4.8311,4.8423,4.8466,4.849,4.8542,4.8595,4.8642,4.8683,4.8691,4.8727,4.8721,4.8788,4.8741,4.8833,4.8785,4.8814,4.8827,4.8832,4.8838,4.8786,4.8872,4.9017,4.9032,4.8845,4.8843,4.8841,0,4.8346,4.8438,4.8517,4.8541,4.8593,4.8629,4.8652,4.8691,4.8725,4.877,4.8792,4.8845,4.8873,4.8914,4.8923,4.8888,4.9014,4.8968,4.9023,4.9023,4.905,4.9048,4.9202,4.9068,4.9068,4.9068,4.9067,0,4.8465,4.8534,4.8555,4.8604,4.8681,4.8688,4.8764,4.8784,4.8818,4.887,4.8861,4.8909,4.8918,4.8968,4.8975,4.905,4.9063,4.9071,4.9072,4.9072,4.9071,4.9091,4.9084,4.9072,4.9071,4.907,4.9069,0,4.857,4.8587,4.8673,4.8715,4.8728,4.8783,4.8819,4.8865,4.888,4.8946,4.8961,4.8984,4.9043,4.9056,4.9125,4.913,4.9219,4.9213,4.9206,4.9206,4.926,4.9255,4.9432,4.9456,4.9306,4.9307,4.9308,0,4.8645,4.8698,4.8747,4.8782,4.8807,4.8863,4.8898,4.8907,4.8944,4.8995,4.9035,4.9093,4.914,4.9234,4.9257,4.931,4.9305,4.9363,4.9312,4.9311,4.9306,4.9303,4.9309,4.9373,4.9375,4.9376,4.9377,0,4.8776,4.8782,4.8834,4.8889,4.8932,4.8975,4.9017,4.9045,4.906,4.9102,4.9163,4.9199,4.9271,4.9328,4.9382,4.9404,4.9393,4.9393,4.9408,4.9409,4.9403,4.9408,4.9233,4.9389,4.9388,4.9387,4.9386,4.9386,4.8868,4.8915,4.8958,4.9016,4.9049,4.9088,4.9134,4.9155,4.9207,4.9267,4.9269,4.9335,4.9375,4.9445,4.9471,4.9523,4.9504,4.9527,4.9532,4.9538,4.9543,4.9395,4.9532,4.9532,4.9532,4.9531,4.9531,0,4.8999,4.9026,4.908,4.9139,4.9185,4.9172,4.9218,4.9256,4.9316,4.9354,4.9401,4.9471,4.9527,4.9555,4.961,4.9646,4.9642,4.966,4.9658,4.9663,4.9556,4.9537,4.9662,4.9662,4.9662,4.9662,4.9662,4.9662,4.9073,4.9153,4.9164,4.9259,4.9285,4.9352,4.9379,4.9415,4.9445,4.9525,4.9572,4.959,4.9624,4.9682,4.9733,4.9739,4.976,4.978,4.9784,4.9684,4.9671,4.9658,4.964,4.9785,4.9785,4.9887,4.9888,4.9889]}]]